Willard, MO

1:02 PM CST on December 06, 2016 (GMT -0600)
Springfield-Branson Regional

Weather History for KSGF - July, 2013

Change the Weather History Date:

Thursday, July 18, 2013

  Actual Average Record
Temperature  
Mean Temperature 83 °F 78 °F  
Max Temperature 94 °F 89 °F 108 °F (1954)
Min Temperature 72 °F 68 °F 53 °F (1984)
Degree Days  
Heating Degree Days 0 0  
Month to date heating degree days 0 0  
Since 1 June heating degree days 14 9  
Since 1 July heating degree days 0 0  
Cooling Degree Days 18 13  
Month to date cooling degree days 228 229  
Year to date cooling degree days 639 607  
Since 1 June cooling degree days 512 492  
Growing Degree Days 32 (Base 50)    
Moisture  
Dew Point 66 °F    
Average Humidity 59    
Maximum Humidity 79    
Minimum Humidity 38    
Precipitation  
Precipitation 0.00 in 0.11 in 2.55 in (1893)
Month to date precipitation 1.57 2.32  
Year to date precipitation 27.55 25.20  
Snow  
Snow 0.00 in - - ()
Month to date snowfall 0.0  
Since 1 June snowfall 0.0  
Since 1 July snowfall 0.0  
Snow Depth 0.00 in    
Sea Level Pressure  
Sea Level Pressure 30.11 in    
Wind  
Wind Speed 5 mph (South)    
Max Wind Speed 13 mph    
Max Gust Speed 17 mph    
Visibility 10 miles    
Events      
T = Trace of Precipitation, MM = Missing Value Source: NWS Daily Summary

Daily Weather History Graph

Daily Weather History Graph

Search for Another Location

Airport or City:

Trip Planner

Search our weather history database for the weather conditions in past years. The results will help you decide how hot, cold, wet, or windy it might be!

Date:

Astronomy

Jul. 18, 2013 Rise Set
Actual Time 6:07 AM CDT 8:31 PM CDT
Civil Twilight 5:37 AM CDT 9:01 PM CDT
Nautical Twilight 5:00 AM CDT 9:38 PM CDT
Astronomical Twilight 4:19 AM CDT 10:18 PM CDT
Moon 4:30 PM CDT (7/18) 1:57 AM CDT (7/18)
Length of Visible Light 15h 24m
Length of Day
14h 24m
Waxing Gibbous, 77% of the Moon is Illuminated
Jul 18
Waxing Gibbous
Jul 22
Full
Jul 29
Last Quarter
Aug 6
New
Aug 14
First Quarter

Hourly Weather History & Observations

Time (CDT) Temp. Heat Index Dew Point Humidity Pressure Visibility Wind Dir Wind Speed Gust Speed Precip Events Conditions
12:52 AM 78.1 °F - 66.9 °F 68% 30.20 in 10.0 mi SSE 9.2 mph - N/A   Clear
1:52 AM 75.9 °F - 66.9 °F 74% 30.19 in 10.0 mi SSE 8.1 mph - N/A   Clear
2:52 AM 75.9 °F - 66.9 °F 74% 30.18 in 10.0 mi SE 8.1 mph - N/A   Clear
3:52 AM 73.9 °F - 66.0 °F 76% 30.17 in 10.0 mi SE 6.9 mph - N/A   Clear
4:52 AM 73.9 °F - 66.0 °F 76% 30.17 in 10.0 mi SSE 8.1 mph - N/A   Clear
5:52 AM 72.0 °F - 64.9 °F 78% 30.17 in 10.0 mi Calm Calm - N/A   Clear
6:52 AM 73.0 °F - 66.0 °F 79% 30.18 in 10.0 mi SSE 6.9 mph - N/A   Clear
7:52 AM 77.0 °F - 66.9 °F 71% 30.19 in 10.0 mi South 6.9 mph - N/A   Clear
8:52 AM 82.0 °F 84.9 °F 68.0 °F 62% 30.18 in 10.0 mi SSW 5.8 mph - N/A   Clear
9:52 AM 86.0 °F 89.4 °F 68.0 °F 55% 30.17 in 10.0 mi WSW 5.8 mph - N/A   Clear
10:52 AM 87.1 °F 90.6 °F 68.0 °F 53% 30.16 in 10.0 mi Variable 3.5 mph - N/A   Clear
11:52 AM 89.1 °F 92.9 °F 68.0 °F 50% 30.15 in 10.0 mi SW 5.8 mph - N/A   Clear
12:52 PM 91.0 °F 93.8 °F 66.0 °F 44% 30.14 in 10.0 mi West 6.9 mph - N/A   Partly Cloudy
1:52 PM 91.9 °F 94.1 °F 64.9 °F 41% 30.10 in 10.0 mi Variable 3.5 mph - N/A   Partly Cloudy
2:52 PM 91.9 °F 94.1 °F 64.9 °F 41% 30.08 in 10.0 mi WNW 6.9 mph - N/A   Clear
3:52 PM 91.9 °F 92.9 °F 63.0 °F 38% 30.05 in 10.0 mi Variable 3.5 mph - N/A   Clear
4:52 PM 93.0 °F 94.6 °F 64.0 °F 38% 30.04 in 10.0 mi Calm Calm - N/A   Clear
5:52 PM 93.9 °F 97.0 °F 66.0 °F 40% 30.03 in 10.0 mi NNW 3.5 mph - N/A   Clear
6:52 PM 93.0 °F 95.9 °F 66.0 °F 41% 30.02 in 10.0 mi Calm Calm - N/A   Clear
7:52 PM 90.0 °F 92.8 °F 66.9 °F 46% 30.02 in 10.0 mi Calm Calm - N/A   Clear
8:52 PM 82.9 °F 87.5 °F 71.1 °F 67% 30.02 in 10.0 mi Calm Calm - N/A   Clear
9:52 PM 82.9 °F 85.0 °F 66.0 °F 56% 30.03 in 10.0 mi SSE 9.2 mph - N/A   Clear
10:52 PM 80.1 °F 82.3 °F 66.9 °F 64% 30.03 in 10.0 mi SSE 9.2 mph - N/A   Clear
11:52 PM 78.1 °F - 66.9 °F 68% 30.01 in 10.0 mi SSE 10.4 mph - N/A   Clear